contact:dominique.lefevre@mio.osupytheas.fr, maurice.libes@osupytheas.fr, didier.mallarino@osupytheas.fr
Project:EMSO http://www.emso-fr.org/EMSO-France
Depth: 2436.0 m
Title:EMSO Ligure Ouest : Data MII capteur AQUADOPP
Date,Latitude,Longitude,X_East,Y_North,Z_Up,Amplitude_X,Amplitude_Y,Amplitude_Z,Batterie,SoundSpeed,Heading,Pitch,Roll,Pressure,TIS,Speed,Direction
, degrees North, degrees East, m.s-1, m.s-1,m.s-1, 1, 1, 1, Volt, m.s-1, degree, degree, degree, dbar, degree_C, m.s-1, degree
2022-03-28T00:04:03,42.805,6.029,0.065,-0.032,0.009,102.0,103.0,101.0,13.4,1505.2,328.7,-0.8,1.8,2470.484,13.28,0.072,116.2
2022-03-28T00:07:03,42.805,6.029,0.044,-0.041,0.036,103.0,103.0,101.0,13.4,1505.2,330.4,-0.8,1.9,2470.49,13.28,0.06,133.0
2022-03-28T00:10:03,42.805,6.029,0.081,-0.062,-0.002,103.0,102.0,102.0,13.3,1505.2,329.3,-0.7,1.8,2470.462,13.28,0.102,127.4
2022-03-28T00:13:03,42.805,6.029,0.066,-0.036,0.006,103.0,103.0,101.0,13.4,1505.2,329.6,-0.8,1.8,2470.484,13.28,0.075,118.6
2022-03-28T00:16:03,42.805,6.029,0.036,-0.031,-0.007,104.0,103.0,101.0,13.3,1505.2,327.4,-0.7,1.8,2470.498,13.28,0.047,130.7
2022-03-28T00:19:03,42.805,6.029,0.05,-0.042,0.003,103.0,102.0,101.0,13.3,1505.2,326.3,-0.8,1.8,2470.471,13.28,0.065,130.0
2022-03-28T00:22:03,42.805,6.029,0.041,-0.037,-0.02,103.0,102.0,101.0,13.4,1505.2,323.9,-0.7,1.8,2470.508,13.28,0.055,132.1
2022-03-28T00:25:03,42.805,6.029,0.058,-0.025,0.024,104.0,103.0,101.0,13.4,1505.2,326.0,-0.7,1.8,2470.444,13.28,0.063,113.3
2022-03-28T00:28:03,42.805,6.029,0.048,-0.031,0.016,103.0,103.0,101.0,13.4,1505.2,328.9,-0.8,1.8,2470.512,13.28,0.057,122.9
2022-03-28T00:31:03,42.805,6.029,0.075,-0.029,-0.005,102.0,102.0,102.0,13.3,1505.2,326.7,-0.8,1.8,2470.501,13.28,0.08,111.1
2022-03-28T00:34:03,42.805,6.029,0.062,-0.032,0.0,103.0,102.0,101.0,13.4,1505.2,328.5,-0.8,1.9,2470.441,13.28,0.069,117.3
2022-03-28T00:37:03,42.805,6.029,0.071,-0.047,0.023,104.0,101.0,101.0,13.3,1505.2,323.5,-0.7,1.9,2470.507,13.28,0.085,123.5
2022-03-28T00:40:03,42.805,6.029,0.057,-0.025,0.031,104.0,100.0,102.0,13.3,1505.2,330.0,-0.8,1.8,2470.475,13.28,0.062,113.7
2022-03-28T00:43:03,42.805,6.029,0.056,-0.031,0.018,103.0,103.0,101.0,13.4,1505.2,323.3,-0.7,1.8,2470.537,13.28,0.064,119.0
2022-03-28T00:46:03,42.805,6.029,0.049,-0.043,0.01,103.0,103.0,102.0,13.4,1505.2,327.5,-0.8,1.8,2470.515,13.28,0.065,131.3
2022-03-28T00:49:03,42.805,6.029,0.07,-0.043,0.012,103.0,102.0,101.0,13.4,1505.2,326.8,-0.8,1.8,2470.52,13.28,0.082,121.6
2022-03-28T00:52:03,42.805,6.029,0.037,-0.03,-0.001,103.0,103.0,101.0,13.4,1505.2,332.2,-0.7,1.8,2470.53,13.28,0.047,129.0
2022-03-28T00:55:03,42.805,6.029,0.082,-0.03,-0.031,102.0,102.0,102.0,13.4,1505.2,324.9,-0.8,1.8,2470.527,13.28,0.087,110.1
2022-03-28T00:58:03,42.805,6.029,0.052,-0.032,-0.014,103.0,103.0,102.0,13.4,1505.2,322.6,-0.8,1.9,2470.538,13.28,0.061,121.6
2022-03-28T02:04:03,42.805,6.029,0.055,-0.041,0.0,102.0,103.0,102.0,13.4,1505.1,328.5,-0.8,1.8,2470.964,13.27,0.068,126.7
2022-03-28T02:07:03,42.805,6.029,0.053,-0.032,0.002,103.0,101.0,103.0,13.3,1505.1,326.0,-0.7,1.8,2470.88,13.27,0.061,121.1
2022-03-28T02:10:03,42.805,6.029,0.044,-0.042,-0.001,105.0,101.0,101.0,13.4,1505.2,330.2,-0.7,1.8,2470.821,13.28,0.06,133.7
2022-03-28T02:13:03,42.805,6.029,0.056,-0.04,-0.01,102.0,103.0,102.0,13.4,1505.2,325.4,-0.8,1.8,2470.786,13.28,0.068,125.5
2022-03-28T02:16:03,42.805,6.029,0.051,-0.007,0.017,104.0,104.0,102.0,13.4,1505.2,326.8,-0.7,1.8,2470.74,13.28,0.051,97.8
2022-03-28T02:19:03,42.805,6.029,0.05,-0.031,-0.004,103.0,103.0,101.0,13.4,1505.2,330.9,-0.8,1.8,2470.666,13.28,0.058,121.8
2022-03-28T02:22:03,42.805,6.029,0.082,-0.038,0.011,103.0,102.0,102.0,13.4,1505.2,322.3,-0.7,1.8,2470.695,13.28,0.09,114.9
2022-03-28T02:25:03,42.805,6.029,0.052,-0.049,0.004,103.0,103.0,101.0,13.4,1505.2,327.1,-0.7,1.8,2470.626,13.28,0.071,133.3
2022-03-28T02:28:03,42.805,6.029,0.054,-0.031,-0.007,103.0,104.0,102.0,13.3,1505.2,324.7,-0.7,1.8,2470.652,13.28,0.062,119.9
2022-03-28T02:31:03,42.805,6.029,0.062,-0.038,-0.016,102.0,103.0,101.0,13.3,1505.2,323.9,-0.8,1.8,2470.603,13.28,0.072,121.5
2022-03-28T02:34:03,42.805,6.029,0.072,-0.061,-0.008,103.0,103.0,101.0,13.4,1505.2,325.1,-0.7,1.8,2470.634,13.28,0.094,130.3
2022-03-28T02:37:03,42.805,6.029,0.056,-0.026,0.017,103.0,102.0,102.0,13.4,1505.2,325.2,-0.8,1.8,2470.569,13.28,0.061,114.9
2022-03-28T02:40:03,42.805,6.029,0.061,-0.055,-0.007,103.0,103.0,102.0,13.4,1505.2,330.6,-0.8,1.8,2470.555,13.28,0.082,132.0
2022-03-28T02:43:03,42.805,6.029,0.065,-0.046,0.012,103.0,102.0,102.0,13.4,1505.2,329.1,-0.8,1.8,2470.608,13.28,0.079,125.3
2022-03-28T02:46:03,42.805,6.029,0.072,-0.029,-0.007,104.0,103.0,103.0,13.4,1505.2,326.7,-0.8,1.8,2470.58,13.28,0.077,111.9
2022-03-28T02:49:03,42.805,6.029,0.077,-0.03,0.004,103.0,103.0,101.0,13.4,1505.2,323.8,-0.8,1.8,2470.587,13.28,0.082,111.3
2022-03-28T02:52:03,42.805,6.029,0.094,-0.048,0.028,103.0,103.0,101.0,13.4,1505.2,325.6,-0.8,1.8,2470.549,13.28,0.105,117.0
2022-03-28T02:55:03,42.805,6.029,0.051,-0.044,0.023,103.0,103.0,101.0,13.3,1505.2,329.8,-0.7,1.9,2470.563,13.28,0.067,130.8
2022-03-28T02:58:03,42.805,6.029,0.065,-0.042,-0.009,102.0,103.0,102.0,13.3,1505.2,328.8,-0.8,1.8,2470.564,13.28,0.077,122.9
2022-03-28T03:04:03,42.805,6.029,0.067,-0.042,0.003,103.0,103.0,102.0,13.4,1505.2,328.5,-0.7,1.8,2470.619,13.28,0.079,122.1
2022-03-28T03:07:03,42.805,6.029,0.048,-0.021,0.002,103.0,103.0,101.0,13.4,1505.2,324.6,-0.8,1.8,2470.606,13.28,0.052,113.6
2022-03-28T03:10:03,42.805,6.029,0.068,-0.033,-0.004,104.0,102.0,101.0,13.4,1505.2,326.0,-0.7,1.8,2470.59,13.28,0.075,115.9
2022-03-28T03:13:03,42.805,6.029,0.07,-0.025,-0.009,103.0,104.0,101.0,13.4,1505.2,324.4,-0.7,1.8,2470.601,13.28,0.074,109.6
2022-03-28T03:16:03,42.805,6.029,0.068,-0.048,-0.001,102.0,102.0,102.0,13.4,1505.2,328.3,-0.8,1.9,2470.568,13.28,0.083,125.2
2022-03-28T03:19:03,42.805,6.029,0.034,-0.022,-0.004,103.0,102.0,101.0,13.3,1505.2,328.8,-0.7,1.8,2470.589,13.28,0.04,122.9
2022-03-28T03:22:03,42.805,6.029,0.078,-0.033,-0.018,103.0,103.0,101.0,13.3,1505.2,326.7,-0.8,1.8,2470.631,13.28,0.084,112.9
2022-03-28T03:25:03,42.805,6.029,0.073,-0.053,-0.027,104.0,103.0,101.0,13.3,1505.2,331.7,-0.7,1.8,2470.594,13.28,0.09,126.0
2022-03-28T03:28:03,42.805,6.029,0.08,-0.029,0.008,102.0,103.0,102.0,13.3,1505.2,324.3,-0.8,1.8,2470.599,13.28,0.085,109.9
2022-03-28T03:31:03,42.805,6.029,0.067,-0.04,0.01,103.0,102.0,101.0,13.3,1505.2,327.6,-0.7,1.8,2470.584,13.28,0.078,120.8
2022-03-28T03:34:03,42.805,6.029,0.07,-0.051,0.023,104.0,102.0,101.0,13.4,1505.2,332.7,-0.8,1.8,2470.625,13.28,0.086,126.1
2022-03-28T03:37:03,42.805,6.029,0.065,-0.025,0.007,103.0,103.0,101.0,13.3,1505.2,328.9,-0.7,1.8,2470.613,13.28,0.069,111.0
2022-03-28T03:40:03,42.805,6.029,0.073,-0.046,-0.024,102.0,103.0,102.0,13.3,1505.2,327.5,-0.8,1.8,2470.656,13.28,0.086,122.2
2022-03-28T03:43:03,42.805,6.029,0.07,-0.044,0.012,104.0,103.0,102.0,13.3,1505.2,326.0,-0.8,1.8,2470.592,13.28,0.082,122.2
2022-03-28T03:46:03,42.805,6.029,0.079,-0.021,0.016,104.0,100.0,101.0,13.4,1505.2,331.0,-0.8,1.8,2470.59,13.28,0.081,104.9
2022-03-28T03:49:03,42.805,6.029,0.068,-0.056,-0.002,103.0,103.0,101.0,13.3,1505.2,330.7,-0.8,1.8,2470.644,13.28,0.088,129.5
2022-03-28T03:52:03,42.805,6.029,0.075,-0.039,-0.005,103.0,102.0,102.0,13.4,1505.2,327.8,-0.8,1.9,2470.644,13.28,0.084,117.5
2022-03-28T03:55:03,42.805,6.029,0.067,-0.048,0.013,103.0,103.0,101.0,13.3,1505.2,331.1,-0.8,1.8,2470.635,13.28,0.082,125.6
2022-03-28T03:58:03,42.805,6.029,0.049,-0.054,-0.018,101.0,103.0,102.0,13.3,1505.2,330.2,-0.7,1.8,2470.627,13.28,0.072,137.8
2022-03-28T04:04:03,42.805,6.029,0.068,-0.039,0.0,104.0,102.0,101.0,13.4,1505.2,328.0,-0.7,1.8,2470.678,13.28,0.078,119.8
2022-03-28T04:07:03,42.805,6.029,0.06,-0.05,-0.018,103.0,103.0,102.0,13.4,1505.2,331.2,-0.8,1.8,2470.664,13.28,0.078,129.8
2022-03-28T04:10:03,42.805,6.029,0.094,-0.033,0.016,102.0,103.0,102.0,13.4,1505.2,324.4,-0.7,1.9,2470.651,13.28,0.099,109.3
2022-03-28T04:13:03,42.805,6.029,0.078,-0.052,0.013,103.0,102.0,101.0,13.4,1505.2,329.6,-0.8,1.8,2470.671,13.28,0.093,123.7
2022-03-28T04:16:03,42.805,6.029,0.068,-0.031,-0.03,102.0,103.0,101.0,13.4,1505.2,325.6,-0.8,1.8,2470.639,13.28,0.074,114.5
2022-03-28T04:19:03,42.805,6.029,0.056,-0.047,0.004,102.0,104.0,101.0,13.4,1505.2,331.9,-0.7,1.8,2470.653,13.28,0.073,130.0
2022-03-28T04:22:03,42.805,6.029,0.058,-0.044,0.006,102.0,102.0,103.0,13.3,1505.2,331.5,-0.8,1.9,2470.637,13.28,0.072,127.2
2022-03-28T04:25:03,42.805,6.029,0.049,-0.023,0.011,103.0,103.0,101.0,13.4,1505.2,331.3,-0.7,1.8,2470.642,13.28,0.054,115.1
2022-03-28T04:28:03,42.805,6.029,0.069,-0.038,-0.027,103.0,103.0,102.0,13.4,1505.2,327.6,-0.7,1.8,2470.629,13.28,0.078,118.8
2022-03-28T04:31:03,42.805,6.029,0.078,-0.048,-0.027,103.0,104.0,100.0,13.4,1505.2,323.4,-0.8,1.8,2470.626,13.28,0.091,121.6
2022-03-28T04:34:03,42.805,6.029,0.097,-0.045,-0.01,103.0,102.0,101.0,13.4,1505.2,323.5,-0.7,1.8,2470.669,13.28,0.106,114.9
2022-03-28T04:37:03,42.805,6.029,0.081,-0.059,0.012,103.0,102.0,101.0,13.3,1505.2,330.6,-0.8,1.8,2470.637,13.28,0.1,126.1
2022-03-28T04:40:03,42.805,6.029,0.067,-0.039,-0.032,102.0,102.0,101.0,13.4,1505.2,331.3,-0.8,1.8,2470.634,13.28,0.077,120.2
2022-03-28T04:43:03,42.805,6.029,0.089,-0.043,0.005,104.0,102.0,101.0,13.4,1505.2,329.5,-0.7,1.8,2470.635,13.28,0.098,115.8
2022-03-28T04:46:03,42.805,6.029,0.078,-0.041,0.003,102.0,102.0,101.0,13.4,1505.2,325.8,-0.7,1.8,2470.642,13.28,0.088,117.7
2022-03-28T04:49:03,42.805,6.029,0.087,-0.059,-0.006,103.0,102.0,102.0,13.3,1505.2,327.1,-0.8,1.8,2470.667,13.28,0.105,124.1
2022-03-28T04:52:03,42.805,6.029,0.07,-0.048,0.0,103.0,102.0,101.0,13.4,1505.2,329.2,-0.7,1.9,2470.651,13.28,0.084,124.4
2022-03-28T04:55:03,42.805,6.029,0.105,-0.045,0.037,103.0,101.0,101.0,13.4,1505.2,322.4,-0.8,1.8,2470.686,13.28,0.114,113.2
2022-03-28T04:58:03,42.805,6.029,0.08,-0.052,0.012,104.0,102.0,101.0,13.3,1505.2,326.4,-0.7,1.8,2470.645,13.28,0.095,123.0
2022-03-28T05:04:03,42.805,6.029,0.057,-0.033,-0.002,103.0,103.0,101.0,13.4,1505.2,330.6,-0.8,1.8,2470.659,13.28,0.065,120.1
2022-03-28T05:07:03,42.805,6.029,0.07,-0.036,0.01,103.0,103.0,101.0,13.4,1505.2,332.1,-0.7,1.8,2470.682,13.28,0.078,117.2
2022-03-28T05:10:03,42.805,6.029,0.084,-0.038,0.041,103.0,102.0,101.0,13.3,1505.2,329.4,-0.8,1.8,2470.682,13.28,0.092,114.3
2022-03-28T05:13:03,42.805,6.029,0.06,-0.035,-0.011,103.0,102.0,101.0,13.4,1505.2,327.1,-0.7,1.8,2470.646,13.28,0.069,120.3
2022-03-28T05:16:03,42.805,6.029,0.098,-0.042,0.001,103.0,103.0,101.0,13.3,1505.2,323.1,-0.7,1.8,2470.674,13.28,0.106,113.2
2022-03-28T05:19:03,42.805,6.029,0.058,-0.039,0.01,102.0,101.0,102.0,13.4,1505.2,332.0,-0.7,1.8,2470.661,13.28,0.069,123.9
2022-03-28T05:22:03,42.805,6.029,0.061,-0.045,0.012,103.0,102.0,102.0,13.4,1505.2,323.4,-0.8,1.8,2470.672,13.28,0.075,126.4
2022-03-28T05:25:03,42.805,6.029,0.082,-0.031,0.01,103.0,103.0,101.0,13.4,1505.2,324.2,-0.8,1.8,2470.68,13.28,0.087,110.7
2022-03-28T05:28:03,42.805,6.029,0.071,-0.029,0.0,103.0,102.0,101.0,13.4,1505.2,328.7,-0.7,1.8,2470.635,13.28,0.076,112.2
2022-03-28T05:31:03,42.805,6.029,0.082,-0.033,0.009,102.0,103.0,101.0,13.4,1505.2,322.7,-0.7,1.8,2470.673,13.28,0.088,111.9
2022-03-28T05:34:03,42.805,6.029,0.08,-0.045,0.015,103.0,102.0,102.0,13.4,1505.2,327.5,-0.8,1.8,2470.642,13.28,0.091,119.4
2022-03-28T05:37:03,42.805,6.029,0.071,-0.053,0.0,103.0,101.0,101.0,13.4,1505.2,325.5,-0.8,1.8,2470.61,13.28,0.088,126.7
2022-03-28T05:40:03,42.805,6.029,0.05,-0.03,-0.003,103.0,102.0,101.0,13.3,1505.2,323.8,-0.8,1.8,2470.645,13.28,0.058,121.0
2022-03-28T05:43:03,42.805,6.029,0.079,-0.051,-0.051,104.0,103.0,101.0,13.4,1505.2,329.4,-0.8,1.8,2470.645,13.28,0.094,122.8
2022-03-28T05:46:03,42.805,6.029,0.073,-0.05,0.009,103.0,102.0,102.0,13.4,1505.2,327.0,-0.8,1.8,2470.681,13.28,0.088,124.4
2022-03-28T05:49:03,42.805,6.029,0.067,-0.051,0.02,103.0,103.0,101.0,13.4,1505.2,325.6,-0.8,1.8,2470.659,13.28,0.084,127.3
2022-03-28T05:52:03,42.805,6.029,0.069,-0.038,0.004,102.0,102.0,102.0,13.4,1505.2,325.7,-0.8,1.8,2470.632,13.28,0.078,118.8
2022-03-28T05:55:03,42.805,6.029,0.061,-0.055,-0.023,103.0,103.0,101.0,13.4,1505.2,331.2,-0.7,1.8,2470.674,13.28,0.082,132.0
2022-03-28T05:58:03,42.805,6.029,0.06,-0.021,-0.002,103.0,103.0,101.0,13.4,1505.2,324.4,-0.7,1.8,2470.629,13.28,0.063,109.3
2022-03-28T06:04:03,42.805,6.029,0.067,-0.056,-0.004,102.0,103.0,101.0,13.3,1505.2,328.5,-0.8,1.9,2470.693,13.28,0.087,129.9
2022-03-28T06:07:03,42.805,6.029,0.085,-0.059,-0.003,103.0,103.0,101.0,13.4,1505.2,331.9,-0.8,1.8,2470.693,13.28,0.103,124.8
2022-03-28T06:10:03,42.805,6.029,0.061,-0.041,-0.022,103.0,103.0,101.0,13.4,1505.2,330.0,-0.7,1.8,2470.666,13.28,0.073,123.9
2022-03-28T06:13:03,42.805,6.029,0.06,-0.05,-0.031,104.0,103.0,100.0,13.4,1505.2,322.4,-0.8,1.8,2470.683,13.28,0.078,129.8
2022-03-28T06:16:03,42.805,6.029,0.058,-0.033,-0.024,103.0,103.0,101.0,13.3,1505.2,326.7,-0.8,1.8,2470.65,13.28,0.066,119.6
2022-03-28T06:19:03,42.805,6.029,0.055,-0.053,-0.001,103.0,104.0,101.0,13.3,1505.2,332.6,-0.7,1.8,2470.712,13.28,0.076,133.9
2022-03-28T06:22:03,42.805,6.029,0.05,-0.026,0.005,103.0,103.0,101.0,13.4,1505.2,326.8,-0.8,1.8,2470.682,13.28,0.056,117.5
2022-03-28T06:25:03,42.805,6.029,0.084,-0.05,0.006,102.0,103.0,102.0,13.3,1505.2,323.3,-0.8,1.8,2470.637,13.28,0.097,120.8
2022-03-28T06:28:03,42.805,6.029,0.078,-0.031,0.015,102.0,104.0,102.0,13.4,1505.2,332.5,-0.7,1.8,2470.619,13.28,0.083,111.7
2022-03-28T06:31:03,42.805,6.029,0.063,-0.048,0.003,104.0,102.0,101.0,13.3,1505.2,330.7,-0.8,1.8,2470.636,13.28,0.079,127.3
2022-03-28T06:34:03,42.805,6.029,0.062,-0.053,-0.012,103.0,103.0,102.0,13.4,1505.2,323.2,-0.7,1.8,2470.649,13.28,0.081,130.5
2022-03-28T06:37:03,42.805,6.029,0.081,-0.043,-0.011,104.0,104.0,103.0,13.4,1505.2,326.3,-0.7,1.8,2470.652,13.28,0.091,118.0
2022-03-28T06:40:03,42.805,6.029,0.088,-0.054,0.03,104.0,104.0,102.0,13.4,1505.2,324.2,-0.8,1.8,2470.637,13.28,0.103,121.5
2022-03-28T06:43:03,42.805,6.029,0.086,-0.05,-0.042,104.0,103.0,103.0,13.3,1505.2,323.3,-0.8,1.8,2470.634,13.28,0.099,120.2
2022-03-28T06:46:03,42.805,6.029,0.065,-0.044,-0.016,104.0,103.0,103.0,13.4,1505.2,322.8,-0.7,1.8,2470.662,13.28,0.078,124.1
2022-03-28T06:49:03,42.805,6.029,0.072,-0.066,-0.004,103.0,103.0,101.0,13.3,1505.2,329.6,-0.8,1.8,2470.598,13.28,0.097,132.5
2022-03-28T06:52:03,42.805,6.029,0.057,-0.054,-0.015,104.0,103.0,102.0,13.4,1505.2,325.5,-0.8,1.8,2470.657,13.28,0.078,133.5
2022-03-28T06:55:03,42.805,6.029,0.059,-0.056,-0.013,104.0,104.0,102.0,13.4,1505.2,331.2,-0.8,1.8,2470.63,13.28,0.081,133.5
2022-03-28T06:58:03,42.805,6.029,0.05,-0.034,-0.046,104.0,105.0,101.0,13.4,1505.2,323.5,-0.7,1.8,2470.642,13.28,0.06,124.2
2022-03-28T07:04:03,42.805,6.029,0.043,-0.047,-0.011,104.0,103.0,102.0,13.3,1505.2,327.6,-0.8,1.8,2470.629,13.28,0.063,137.5
2022-03-28T07:07:03,42.805,6.029,0.064,-0.047,-0.01,104.0,103.0,103.0,13.4,1505.2,325.8,-0.8,1.8,2470.641,13.28,0.079,126.3
2022-03-28T07:10:03,42.805,6.029,0.084,-0.056,0.001,103.0,104.0,102.0,13.3,1505.2,329.0,-0.8,1.8,2470.649,13.28,0.1,123.7
2022-03-28T07:13:03,42.805,6.029,0.07,-0.046,0.022,103.0,104.0,102.0,13.3,1505.2,324.4,-0.8,1.8,2470.61,13.28,0.083,123.3
2022-03-28T07:16:03,42.805,6.029,0.06,-0.054,-0.037,103.0,104.0,101.0,13.4,1505.2,331.1,-0.7,1.8,2470.607,13.28,0.08,132.0
2022-03-28T07:19:03,42.805,6.029,0.079,-0.032,-0.005,103.0,103.0,102.0,13.4,1505.2,325.2,-0.8,1.8,2470.607,13.28,0.085,112.0
2022-03-28T07:22:03,42.805,6.029,0.044,-0.026,0.03,103.0,102.0,103.0,13.4,1505.2,323.5,-0.8,1.9,2470.621,13.28,0.051,120.6
2022-03-28T07:25:03,42.805,6.029,0.053,-0.045,-0.007,104.0,104.0,102.0,13.4,1505.2,330.0,-0.8,1.8,2470.619,13.28,0.069,130.3
2022-03-28T07:28:03,42.805,6.029,0.063,-0.044,-0.008,104.0,104.0,102.0,13.4,1505.2,327.0,-0.8,1.8,2470.592,13.28,0.076,124.9
2022-03-28T07:31:03,42.805,6.029,0.042,-0.045,-0.012,104.0,104.0,102.0,13.4,1505.2,331.7,-0.8,1.8,2470.644,13.28,0.061,137.0
2022-03-28T07:34:03,42.805,6.029,0.061,-0.023,0.003,104.0,104.0,102.0,13.4,1505.2,327.5,-0.8,1.8,2470.609,13.28,0.065,110.7
2022-03-28T07:37:03,42.805,6.029,0.043,-0.042,-0.02,105.0,103.0,102.0,13.4,1505.2,327.1,-0.7,1.8,2470.6,13.28,0.06,134.3
2022-03-28T07:40:03,42.805,6.029,0.056,-0.043,-0.028,105.0,104.0,103.0,13.3,1505.2,323.2,-0.7,1.8,2470.57,13.28,0.07,127.5
2022-03-28T07:43:03,42.805,6.029,0.048,-0.048,0.023,105.0,104.0,103.0,13.4,1505.2,327.7,-0.7,1.8,2470.601,13.28,0.067,135.0
2022-03-28T07:46:03,42.805,6.029,0.067,-0.04,-0.017,104.0,104.0,101.0,13.4,1505.2,329.0,-0.8,1.8,2470.61,13.28,0.078,120.8
2022-03-28T07:49:03,42.805,6.029,0.06,-0.051,-0.007,104.0,103.0,103.0,13.3,1505.2,329.1,-0.8,1.8,2470.59,13.28,0.078,130.4
2022-03-28T07:52:03,42.805,6.029,0.053,-0.024,0.008,104.0,104.0,101.0,13.3,1505.2,324.9,-0.7,1.8,2470.584,13.28,0.058,114.4
2022-03-28T07:55:03,42.805,6.029,0.071,-0.032,0.002,104.0,104.0,102.0,13.4,1505.2,327.0,-0.8,1.8,2470.615,13.28,0.077,114.3
2022-03-28T07:58:03,42.805,6.029,0.057,-0.029,-0.011,103.0,104.0,103.0,13.4,1505.2,322.5,-0.8,1.9,2470.593,13.28,0.063,117.0
2022-03-28T08:04:03,42.805,6.029,0.068,-0.054,0.001,106.0,105.0,103.0,13.4,1505.2,329.6,-0.7,1.8,2470.602,13.28,0.086,128.5
2022-03-28T08:07:03,42.805,6.029,0.076,-0.042,0.023,105.0,105.0,103.0,13.3,1505.2,322.5,-0.7,1.8,2470.639,13.28,0.086,118.9
2022-03-28T08:10:03,42.805,6.029,0.061,-0.042,0.009,105.0,105.0,103.0,13.4,1505.2,327.3,-0.7,1.8,2470.656,13.28,0.074,124.6
2022-03-28T08:13:03,42.805,6.029,0.047,-0.056,0.017,104.0,104.0,103.0,13.3,1505.2,330.4,-0.7,1.8,2470.62,13.28,0.073,140.0
2022-03-28T08:16:03,42.805,6.029,0.066,-0.03,-0.017,105.0,105.0,104.0,13.4,1505.2,325.3,-0.7,1.8,2470.582,13.28,0.072,114.4
2022-03-28T08:19:03,42.805,6.029,0.053,-0.038,0.002,105.0,104.0,103.0,13.3,1505.2,325.7,-0.8,1.8,2470.576,13.28,0.065,125.6
2022-03-28T08:22:03,42.805,6.029,0.056,-0.052,-0.013,106.0,104.0,103.0,13.4,1505.2,326.8,-0.8,1.9,2470.566,13.28,0.076,132.9
2022-03-28T08:25:03,42.805,6.029,0.067,-0.041,-0.009,105.0,105.0,102.0,13.4,1505.2,326.6,-0.8,1.8,2470.545,13.28,0.078,121.5
2022-03-28T08:28:03,42.805,6.029,0.059,-0.046,0.008,105.0,105.0,103.0,13.3,1505.2,327.1,-0.8,1.8,2470.581,13.28,0.074,127.9
2022-03-28T08:31:03,42.805,6.029,0.078,-0.04,-0.003,106.0,103.0,102.0,13.3,1505.2,326.3,-0.8,1.8,2470.55,13.28,0.087,117.1
2022-03-28T08:34:03,42.805,6.029,0.046,-0.045,-0.002,107.0,104.0,103.0,13.3,1505.2,327.3,-0.8,1.8,2470.603,13.28,0.064,134.4
2022-03-28T08:37:03,42.805,6.029,0.076,-0.032,0.026,105.0,105.0,104.0,13.4,1505.2,327.9,-0.8,1.8,2470.535,13.28,0.082,112.8
2022-03-28T08:40:03,42.805,6.029,0.085,-0.026,-0.012,106.0,106.0,103.0,13.3,1505.2,322.3,-0.7,1.8,2470.572,13.28,0.088,107.0
2022-03-28T08:43:03,42.805,6.029,0.061,-0.037,0.004,107.0,106.0,102.0,13.3,1505.2,328.9,-0.7,1.8,2470.553,13.28,0.071,121.2
2022-03-28T08:46:03,42.805,6.029,0.074,-0.035,0.012,106.0,105.0,103.0,13.4,1505.2,328.1,-0.7,1.8,2470.555,13.28,0.081,115.3
2022-03-28T08:49:03,42.805,6.029,0.065,-0.03,0.001,105.0,104.0,103.0,13.3,1505.2,323.9,-0.8,1.8,2470.55,13.28,0.071,114.8
2022-03-28T08:52:03,42.805,6.029,0.064,-0.03,-0.005,106.0,105.0,103.0,13.3,1505.2,323.3,-0.8,1.8,2470.539,13.28,0.07,115.1
2022-03-28T08:55:03,42.805,6.029,0.061,-0.019,0.029,106.0,104.0,102.0,13.4,1505.2,330.3,-0.7,1.8,2470.527,13.28,0.063,107.3
2022-03-28T08:58:03,42.805,6.029,0.081,-0.033,0.0,106.0,106.0,102.0,13.4,1505.2,329.0,-0.8,1.8,2470.547,13.28,0.087,112.2
2022-03-28T09:04:03,42.805,6.029,0.059,-0.037,0.001,106.0,105.0,103.0,13.4,1505.2,326.5,-0.8,1.8,2470.596,13.28,0.069,122.1
2022-03-28T09:07:03,42.805,6.029,0.087,-0.059,-0.037,105.0,104.0,103.0,13.4,1505.2,326.4,-0.7,1.8,2470.533,13.28,0.105,124.1
2022-03-28T09:10:03,42.805,6.029,0.066,-0.051,-0.002,105.0,104.0,103.0,13.4,1505.2,325.0,-0.7,1.8,2470.546,13.28,0.083,127.7
2022-03-28T09:13:03,42.805,6.029,0.074,-0.041,0.019,106.0,104.0,104.0,13.3,1505.2,326.4,-0.8,1.8,2470.584,13.28,0.084,119.0
2022-03-28T09:16:03,42.805,6.029,0.069,-0.033,0.009,106.0,105.0,103.0,13.3,1505.2,325.9,-0.8,1.8,2470.571,13.28,0.076,115.6
2022-03-28T09:19:03,42.805,6.029,0.059,-0.028,-0.033,106.0,104.0,104.0,13.4,1505.2,323.4,-0.8,1.8,2470.453,13.28,0.065,115.4
2022-03-28T09:22:03,42.805,6.029,0.078,-0.056,-0.02,106.0,105.0,104.0,13.4,1505.2,324.8,-0.7,1.8,2470.521,13.28,0.096,125.7
2022-03-28T09:25:03,42.805,6.029,0.07,-0.047,-0.008,106.0,107.0,104.0,13.4,1505.2,325.6,-0.8,1.8,2470.501,13.28,0.084,123.9
2022-03-28T09:28:03,42.805,6.029,0.071,-0.042,-0.017,105.0,105.0,104.0,13.4,1505.2,322.9,-0.7,1.8,2470.517,13.28,0.082,120.6
2022-03-28T09:31:03,42.805,6.029,0.08,-0.047,-0.007,107.0,106.0,103.0,13.4,1505.2,330.5,-0.7,1.8,2470.558,13.28,0.092,120.4
2022-03-28T09:34:03,42.805,6.029,0.061,-0.028,-0.007,106.0,106.0,103.0,13.4,1505.2,327.3,-0.8,1.8,2470.505,13.28,0.067,114.7
2022-03-28T09:37:03,42.805,6.029,0.091,-0.038,0.025,106.0,105.0,104.0,13.4,1505.2,328.7,-0.7,1.8,2470.482,13.28,0.098,112.7
2022-03-28T09:40:03,42.805,6.029,0.067,-0.034,0.003,105.0,105.0,104.0,13.4,1505.2,325.1,-0.7,1.8,2470.479,13.28,0.075,116.9
2022-03-28T09:43:03,42.805,6.029,0.051,-0.057,-0.016,107.0,107.0,103.0,13.4,1505.2,323.1,-0.8,1.8,2470.545,13.28,0.076,138.2
2022-03-28T09:46:03,42.805,6.029,0.068,-0.041,0.016,107.0,106.0,104.0,13.3,1505.2,324.8,-0.7,1.8,2470.499,13.28,0.079,121.1
2022-03-28T09:49:03,42.805,6.029,0.057,-0.044,0.001,107.0,105.0,103.0,13.4,1505.2,326.2,-0.7,1.8,2470.497,13.28,0.072,127.7
2022-03-28T09:52:03,42.805,6.029,0.044,-0.041,-0.002,106.0,105.0,104.0,13.4,1505.2,327.0,-0.7,1.8,2470.486,13.28,0.06,133.0
2022-03-28T09:55:03,42.805,6.029,0.034,-0.048,-0.039,107.0,104.0,103.0,13.4,1505.2,323.4,-0.8,1.8,2470.483,13.28,0.058,144.7
2022-03-28T09:58:03,42.805,6.029,0.061,-0.068,-0.009,107.0,105.0,104.0,13.3,1505.2,328.8,-0.8,1.8,2470.465,13.28,0.091,138.1
2022-03-28T10:04:03,42.805,6.029,0.063,-0.064,-0.006,106.0,105.0,103.0,13.4,1505.2,328.6,-0.7,1.8,2470.528,13.28,0.089,135.4
2022-03-28T10:07:03,42.805,6.029,0.078,-0.042,-0.025,106.0,105.0,103.0,13.3,1505.2,329.2,-0.8,1.8,2470.533,13.28,0.088,118.3
2022-03-28T10:10:03,42.805,6.029,0.083,-0.049,0.011,107.0,105.0,104.0,13.4,1505.2,326.0,-0.7,1.8,2470.503,13.28,0.096,120.6
2022-03-28T10:13:03,42.805,6.029,0.07,-0.059,-0.005,106.0,106.0,104.0,13.4,1505.2,324.2,-0.7,1.8,2470.527,13.28,0.091,130.1
2022-03-28T10:16:03,42.805,6.029,0.049,-0.052,-0.002,107.0,105.0,104.0,13.4,1505.2,328.8,-0.8,1.8,2470.53,13.28,0.071,136.7
2022-03-28T10:19:03,42.805,6.029,0.06,-0.051,0.023,107.0,106.0,104.0,13.4,1505.2,327.1,-0.8,1.8,2470.506,13.28,0.078,130.4
2022-03-28T10:22:03,42.805,6.029,0.041,-0.046,0.006,107.0,106.0,103.0,13.3,1505.2,323.3,-0.8,1.8,2470.464,13.28,0.061,138.3
2022-03-28T10:25:03,42.805,6.029,0.058,-0.046,-0.021,106.0,106.0,104.0,13.3,1505.2,330.0,-0.7,1.8,2470.487,13.28,0.074,128.4
2022-03-28T10:28:03,42.805,6.029,0.043,-0.033,-0.012,106.0,105.0,104.0,13.4,1505.2,325.4,-0.8,1.8,2470.475,13.29,0.054,127.5
2022-03-28T10:31:03,42.805,6.029,0.049,-0.03,-0.008,107.0,106.0,103.0,13.4,1505.2,326.0,-0.8,1.9,2470.507,13.29,0.057,121.5
2022-03-28T10:34:03,42.805,6.029,0.049,-0.045,0.007,107.0,106.0,104.0,13.4,1505.2,325.9,-0.8,1.8,2470.482,13.28,0.066,132.6
2022-03-28T10:37:03,42.805,6.029,0.024,-0.054,-0.041,107.0,105.0,104.0,13.4,1505.2,330.4,-0.8,1.8,2470.475,13.28,0.059,156.0
2022-03-28T10:40:03,42.805,6.029,0.039,-0.019,0.011,107.0,106.0,103.0,13.3,1505.2,327.9,-0.8,1.8,2470.467,13.29,0.043,116.0
2022-03-28T10:43:03,42.805,6.029,0.066,-0.049,-0.014,108.0,107.0,102.0,13.4,1505.2,325.0,-0.7,1.8,2470.455,13.29,0.082,126.6
2022-03-28T10:46:03,42.805,6.029,0.07,-0.049,0.002,107.0,105.0,104.0,13.4,1505.2,322.9,-0.8,1.8,2470.479,13.29,0.085,125.0
2022-03-28T10:49:03,42.805,6.029,0.054,-0.027,-0.039,107.0,105.0,105.0,13.4,1505.2,326.0,-0.7,1.9,2470.452,13.29,0.06,116.6
2022-03-28T10:52:03,42.805,6.029,0.039,-0.039,-0.015,106.0,106.0,104.0,13.3,1505.2,331.5,-0.8,1.8,2470.449,13.29,0.055,135.0
2022-03-28T10:55:03,42.805,6.029,0.063,-0.027,-0.026,107.0,106.0,104.0,13.4,1505.2,325.0,-0.8,1.8,2470.472,13.29,0.068,113.2